• In Italy
  • List of Countries
  • For 7 days
  • Water Temperature
  • Satellite Maps
  • Weather Map
  • Weather Widgets
  • user-avatar
    Login

    Hourly Weather Ashdod

    Today, 24 January, Wednesday

    Time Temperature Precipitation Wind Pressure Humidity
    00:00 +14°C° 0.3 mm 4 mps 760 mmHg 79%
    01:00 +13°C° 0.3 mm 4 mps 760 mmHg 79%
    02:00 +13°C° 0.3 mm 4 mps 760 mmHg 79%
    03:00 +13°C° 0.4 mm 4 mps 760 mmHg 78%
    04:00 +13°C° 0.4 mm 4 mps 760 mmHg 77%
    05:00 +13°C° 0.4 mm 3 mps 760 mmHg 76%
    06:00 +13°C° 0.4 mm 4 mps 760 mmHg 74%
    07:00 +13°C° 0.4 mm 4 mps 760 mmHg 72%
    08:00 +13°C° 0.4 mm 4 mps 760 mmHg 70%
    09:00 +14°C° 0.3 mm 4 mps 760 mmHg 67%
    10:00 +15°C° 0.3 mm 5 mps 760 mmHg 64%
    11:00 +16°C° 0.3 mm 5 mps 760 mmHg 61%
    12:00 +17°C° 0.4 mm 5 mps 760 mmHg 61%
    13:00 +17°C° 0.4 mm 5 mps 759 mmHg 60%
    14:00 +17°C° 0.4 mm 5 mps 759 mmHg 59%
    15:00 +16°C° 0.5 mm 5 mps 759 mmHg 64%
    16:00 +17°C° 0.5 mm 4 mps 759 mmHg 69%
    17:00 +16°C° 0.5 mm 3 mps 759 mmHg 73%
    18:00 +14°C° 0.5 mm 3 mps 759 mmHg 78%
    19:00 +15°C° 0.5 mm 2 mps 759 mmHg 82%
    20:00 +14°C° 0.5 mm 1 mps 759 mmHg 87%
    21:00 +14°C° 0.4 mm 2 mps 759 mmHg 86%
    22:00 +14°C° 0.4 mm 2 mps 759 mmHg 85%
    23:00 +14°C° 0.4 mm 2 mps 759 mmHg 84%

    Tomorrow, 25 January, Thursday

    Time Temperature Precipitation Wind Pressure Humidity
    00:00 +14°C° 0.7 mm 2 mps 759 mmHg 84%
    01:00 +13°C° 0.7 mm 3 mps 759 mmHg 84%
    02:00 +13°C° 0.7 mm 3 mps 759 mmHg 83%
    03:00 +13°C° 1.8 mm 3 mps 758 mmHg 84%
    04:00 +13°C° 1.8 mm 3 mps 758 mmHg 84%
    05:00 +13°C° 1.8 mm 4 mps 758 mmHg 85%
    06:00 +13°C° 2.2 mm 5 mps 758 mmHg 84%
    07:00 +13°C° 2.2 mm 6 mps 758 mmHg 83%
    08:00 +12°C° 2.2 mm 7 mps 758 mmHg 82%
    09:00 +12°C° 1.4 mm 8 mps 758 mmHg 80%
    10:00 +12°C° 1.4 mm 9 mps 758 mmHg 79%
    11:00 +13°C° 1.4 mm 10 mps 758 mmHg 78%
    12:00 +12°C° 0.6 mm 10 mps 757 mmHg 77%
    13:00 +12°C° 0.6 mm 10 mps 757 mmHg 75%
    14:00 +12°C° 0.6 mm 11 mps 757 mmHg 74%
    15:00 +12°C° 0.4 mm 10 mps 757 mmHg 72%
    16:00 +12°C° 0.4 mm 10 mps 757 mmHg 69%
    17:00 +12°C° 0.4 mm 10 mps 757 mmHg 67%
    18:00 +12°C° 0.3 mm 10 mps 757 mmHg 67%
    19:00 +11°C° 0.3 mm 11 mps 758 mmHg 66%
    20:00 +11°C° 0.3 mm 11 mps 758 mmHg 66%
    21:00 +9°C° 0.2 mm 11 mps 758 mmHg 66%
    22:00 +9°C° 0.2 mm 11 mps 758 mmHg 66%
    23:00 +8°C° 0.2 mm 11 mps 758 mmHg 66%

    Day after tomorrow, 26 January, Friday

    Time Temperature Precipitation Wind Pressure Humidity
    00:00 +8°C° 0.3 mm 11 mps 758 mmHg 67%
    01:00 +7°C° 0.3 mm 12 mps 758 mmHg 68%
    02:00 +7°C° 0.3 mm 12 mps 758 mmHg 69%
    03:00 +7°C° 0.4 mm 12 mps 758 mmHg 70%
    04:00 +7°C° 0.4 mm 12 mps 758 mmHg 71%
    05:00 +7°C° 0.4 mm 11 mps 758 mmHg 71%
    06:00 +7°C° 0.6 mm 12 mps 758 mmHg 71%
    07:00 +7°C° 0.6 mm 12 mps 759 mmHg 71%
    08:00 +7°C° 0.6 mm 12 mps 759 mmHg 72%
    09:00 +8°C° 0.7 mm 12 mps 759 mmHg 71%
    10:00 +8°C° 0.7 mm 12 mps 759 mmHg 70%
    11:00 +8°C° 0.7 mm 12 mps 760 mmHg 70%
    12:00 +9°C° 1 mm 12 mps 759 mmHg 71%
    13:00 +9°C° 1 mm 12 mps 759 mmHg 72%
    14:00 +9°C° 1 mm 12 mps 759 mmHg 74%
    15:00 +9°C° 1.4 mm 11 mps 759 mmHg 76%
    16:00 +9°C° 1.4 mm 11 mps 759 mmHg 78%
    17:00 +9°C° 1.4 mm 10 mps 759 mmHg 80%
    18:00 +11°C° 1.5 mm 10 mps 760 mmHg 81%
    19:00 +11°C° 1.5 mm 10 mps 760 mmHg 81%
    20:00 +11°C° 1.5 mm 10 mps 761 mmHg 81%
    21:00 +11°C° 1.2 mm 9 mps 761 mmHg 81%
    22:00 +11°C° 1.2 mm 9 mps 761 mmHg 81%
    23:00 +10°C° 1.2 mm 9 mps 762 mmHg 81%

    27 January, Saturday

    Time Temperature Precipitation Wind Pressure Humidity
    00:00 +10°C° 1 mm 9 mps 762 mmHg 82%
    01:00 +10°C° 1 mm 8 mps 762 mmHg 82%
    02:00 +10°C° 1 mm 8 mps 762 mmHg 83%
    03:00 +10°C° 0.9 mm 7 mps 762 mmHg 84%
    04:00 +10°C° 0.9 mm 6 mps 762 mmHg 84%
    05:00 +10°C° 0.9 mm 6 mps 763 mmHg 85%
    06:00 +10°C° 0.6 mm 5 mps 763 mmHg 85%
    07:00 +10°C° 0.6 mm 5 mps 764 mmHg 85%
    08:00 +11°C° 0.6 mm 4 mps 764 mmHg 84%
    09:00 +12°C° 0.3 mm 4 mps 765 mmHg 83%
    10:00 +12°C° 0.3 mm 4 mps 765 mmHg 82%
    11:00 +12°C° 0.3 mm 4 mps 765 mmHg 82%
    12:00 +13°C° 0.3 mm 4 mps 765 mmHg 80%
    13:00 +13°C° 0.3 mm 4 mps 765 mmHg 79%
    14:00 +14°C° 0.3 mm 3 mps 765 mmHg 77%
    15:00 +14°C° 0.2 mm 3 mps 765 mmHg 79%
    16:00 +13°C° 0.2 mm 3 mps 765 mmHg 81%
    17:00 +13°C° 0.2 mm 3 mps 765 mmHg 82%
    18:00 +13°C° 0.2 mm 3 mps 766 mmHg 83%
    19:00 +14°C° 0.2 mm 2 mps 766 mmHg 84%
    20:00 +13°C° 0.2 mm 2 mps 767 mmHg 85%
    21:00 +13°C° 0.2 mm 2 mps 767 mmHg 86%
    22:00 +13°C° 0.2 mm 2 mps 767 mmHg 87%
    23:00 +13°C° 0.2 mm 1 mps 767 mmHg 87%

    28 January, Sunday

    Time Temperature Precipitation Wind Pressure Humidity
    00:00 +13°C° 0.1 mm 1 mps 767 mmHg 88%
    01:00 +13°C° 0.1 mm 1 mps 767 mmHg 88%
    02:00 +13°C° 0.1 mm 1 mps 767 mmHg 88%
    03:00 +12°C° 0.1 mm 1 mps 767 mmHg 88%
    04:00 +12°C° 0.1 mm 1 mps 767 mmHg 88%
    05:00 +12°C° 0.1 mm 1 mps 767 mmHg 88%
    06:00 +13°C° 0.1 mm 1 mps 768 mmHg 86%
    07:00 +13°C° 0.1 mm 1 mps 768 mmHg 84%
    08:00 +14°C° 0.1 mm 1 mps 768 mmHg 82%
    09:00 +14°C° 0 mm 1 mps 768 mmHg 77%
    10:00 +15°C° 0 mm 1 mps 768 mmHg 71%
    11:00 +16°C° 0 mm 1 mps 768 mmHg 66%
    12:00 +16°C° 0 mm 1 mps 768 mmHg 65%
    13:00 +16°C° 0 mm 2 mps 768 mmHg 64%
    14:00 +16°C° 0 mm 3 mps 767 mmHg 63%
    15:00 +16°C° 0 mm 3 mps 767 mmHg 66%
    16:00 +16°C° 0 mm 3 mps 767 mmHg 68%
    17:00 +14°C° 0 mm 3 mps 767 mmHg 71%
    18:00 +13°C° 0 mm 3 mps 768 mmHg 74%
    19:00 +14°C° 0 mm 2 mps 768 mmHg 76%
    20:00 +13°C° 0 mm 2 mps 768 mmHg 78%
    21:00 +13°C° 0 mm 2 mps 768 mmHg 80%
    22:00 +13°C° 0 mm 2 mps 768 mmHg 81%
    23:00 +12°C° 0 mm 1 mps 768 mmHg 82%

    29 January, Monday

    Time Temperature Precipitation Wind Pressure Humidity
    00:00 +12°C° 0 mm 1 mps 768 mmHg 82%
    01:00 +12°C° 0 mm 2 mps 768 mmHg 83%
    02:00 +12°C° 0 mm 2 mps 767 mmHg 83%
    03:00 +10°C° 0 mm 2 mps 767 mmHg 83%
    04:00 +10°C° 0 mm 2 mps 767 mmHg 83%
    05:00 +10°C° 0 mm 2 mps 767 mmHg 84%
    06:00 +12°C° 0 mm 2 mps 767 mmHg 81%
    07:00 +13°C° 0 mm 2 mps 768 mmHg 77%
    08:00 +13°C° 0 mm 2 mps 768 mmHg 74%
    09:00 +14°C° 0 mm 2 mps 768 mmHg 67%
    10:00 +16°C° 0 mm 2 mps 767 mmHg 61%
    11:00 +17°C° 0 mm 3 mps 767 mmHg 54%
    12:00 +17°C° 0 mm 3 mps 767 mmHg 53%
    13:00 +17°C° 0 mm 4 mps 766 mmHg 51%
    14:00 +17°C° 0 mm 5 mps 766 mmHg 50%
    15:00 +16°C° 0 mm 5 mps 766 mmHg 54%
    16:00 +15°C° 0 mm 5 mps 766 mmHg 58%
    17:00 +14°C° 0 mm 5 mps 766 mmHg 63%
    18:00 +13°C° 0 mm 5 mps 766 mmHg 66%
    19:00 +13°C° 0 mm 5 mps 767 mmHg 69%
    20:00 +12°C° 0 mm 4 mps 767 mmHg 73%
    21:00 +12°C° 0 mm 4 mps 767 mmHg 73%
    22:00 +12°C° 0 mm 4 mps 767 mmHg 74%
    23:00 +11°C° 0 mm 4 mps 767 mmHg 74%
    Show more